{"data":{"norad_id":52620,"epoch":"2026-05-24T15:34:56.375904Z","epoch_age_seconds":102418,"freshness":"FRESH","line1":"1 52620U 22052Y   26144.64926361 -.00000944  00000+0 -41216-4 0  9996","line2":"2 52620  53.2131 303.1215 0001563  93.9921 266.1250 15.08844762222244","mean_motion":15.08844762,"eccentricity":0.0001563,"inclination_deg":53.2131,"raan_deg":303.1215,"arg_perigee_deg":93.9921,"mean_anomaly_deg":266.125,"bstar":-4.1216e-5,"rev_number":22224,"period_min":95.437253471408,"perigee_km":538.64757104368,"apogee_km":540.81009590322,"semimajor_km":6917.8658334735,"source":"CELESTRAK","updated_at":"2026-05-25T13:38:17.201302Z"}}